Weather in Sugoyak

Russia / Chelyabinsk Oblast     55°44′05″N   62°03′55″E
temp.,
°C
wind,
m/s
gust,
m/s
humid.,
%
clouds,
%
prec.,
mm/h
press.,
hPa
HPBL,
m
19 april, mon
mon1923:00−1ne610410 0.0 1031783
02:00−2ene48440 0.0 1032924
05:00−3ne36470 0.0 1034807
08:00−3ne56400 0.0 10351113
11:000ne56335 0.0 10351621
14:00+2ne563235 0.0 10341944
17:00+2ne463190 0.0 10332065
20:000ene22435 0.0 103421
20 april, tue
tue2023:00−1se11455 0.0 103410
02:00−1wnw22475 0.0 103416
05:00−2wnw22545 0.0 103537
08:00+1wnw35415 0.0 1035348
11:00+5wnw443212 0.0 10341350
14:00+7wnw46315 0.0 10321785
17:00+9wnw57295 0.0 10301950
20:00+6nw34450 0.0 103053
21 april, wed
wed2123:00+3wnw48590 0.0 1030146
02:00+1nw48670 0.0 1030140
05:000nw36720 0.0 1031108
08:00+3nw35590 0.0 1032257
11:00+8nw33450 0.0 1032865
14:00+10nnw22380 0.0 10321295
17:00+12ne11360 0.0 10311449
20:00+9se11460 0.0 103210
22 april, thu
thu2223:00+7sse22525 0.0 103412
02:00+5sse33604 0.0 103437
05:00+4sse34685 0.0 103554
08:00+7sse46568 0.0 1035221
11:00+12s563642 0.0 10351227
14:00+15s6729100 0.0 10351691
17:00+15s6729100 0.0 10341631
20:00+11s3744100 0.0 1034118
23 april, fri
fri2323:00+9ssw375298 0.0 103599
02:00+7s365789 0.0 103485
05:00+6s3662100 0.0 103594
08:00+8s4859100 0.0 1035240
11:00+13s5741100 0.0 10341167
14:00+15s6735100 0.0 10332080
17:00+15s6735100 0.0 10322154
20:00+13sse5104699 0.0 1032346